Regional Weather Roundup
Issued by NWS Kansas City/Pleasant Hill, MO

Home | Current Version | Previous Version | Text Only | Print | Product List | Glossary On
Versions: 1 2 3 4 5 6 7 8 9 10 11 12 13 14 15 16 17 18 19 20 21 22 23 24 25 26 27 28 29 30 31 32 33 34 35 36 37 38 39 40 41 42 43 44 45 46 47 48 49 50
000
ASUS43 KEAX 301111
RWREAX

WEATHER ROUNDUP FOR EASTERN KANSAS AND NORTHWEST MISSOURI
NATIONAL WEATHER SERVICE KANSAS CITY/PLEASANT HILL MO
600 AM CDT TUE SEP 30 2014

KSZ040-057-103>105-MOZ028-029-037-043-301200-
...KANSAS CITY METROPOLITAN AREA...

CITY           SKY/WX    TMP DP  RH WIND       PRES   REMARKS
K.C. INTL      MOCLDY    63  58  83 SE8       29.92S
K.C. DOWNTOWN  PTCLDY    65  59  81 CALM      29.92S
LEES SUMMIT    PTCLDY    65  57  75 S5        29.94S
OLATHE - IXD   PTCLDY    60  57  89 S6        29.93S
OLATHE - OJC   PTCLDY    63  58  83 SE5       29.92F
LAWRENCE       PTCLDY    57  55  93 CALM      29.92S

$$

MOZ001>008-011>017-020>025-030>033-038>040-044>046-053-054-301200-
...NORTHERN AND CENTRAL MISSOURI...

CITY           SKY/WX    TMP DP  RH WIND       PRES   REMARKS
ST. JOSEPH     MOCLDY    57  56  96 CALM      29.91F
MOSBY          MOSUNNY   55  55 100 CALM      29.93S
WHITEMAN AFB   PTCLDY    59  57  94 SE3       29.93F
CLINTON        CLEAR     55  55 100 CALM      29.95S FOG
SEDALIA        CLEAR     63  57  81 S3        29.95S
WARSAW         NOT AVBL
MARSHALL       CLEAR     61  61 100 CALM      29.95S
CHILLICOTHE      N/A     57  54  89 CALM      29.95S
MOBERLY        CLEAR     59  54  82 CALM      29.96S
KIRKSVILLE     CLEAR     59  58  96 NE6       29.97S FOG

$$

MOZ041-047>049-056>058-063>065-088>090-097-301200-
...EASTERN AND SOUTHERN MISSOURI...

CITY           SKY/WX    TMP DP  RH WIND       PRES   REMARKS
ST. LOUIS INTL CLEAR     64  58  80 CALM      29.96S
SPIRIT OF STL  CLEAR     54  54 100 CALM      29.95S
COLUMBIA       CLEAR     62  56  80 S3        29.95F
JEFFERSON CITY FOG       55  54  96 SE3       29.95S VSB 3/4
MEXICO         CLEAR    N/A N/A N/A CALM      29.95S
HANNIBAL       CLEAR     61  57  88 CALM      29.96S
ROLLA          CLEAR     59  56  89 S7        29.95F
LEBANON        CLEAR     61  55  82 S3        29.97S
OSAGE BEACH    CLEAR     55  52  88 CALM      29.95S
SPRINGFIELD    CLEAR     60  56  86 S5        29.96S
BRANSON        PTCLDY    57  57 100 CALM      29.99R
NEVADA         CLEAR     59  57  94 CALM      29.95S FOG
JOPLIN         CLEAR     60  58  92 SE5       29.95S
WEST PLAINS    CLEAR     56  53  90 CALM      30.00S FOG

$$

IAZ060-094-KSZ022-034>040-054-083-096-NEZ052-066-093-301200-
...KANSAS...SOUTHEAST NEBRASKA AND IOWA...

CITY           SKY/WX    TMP DP  RH WIND       PRES   REMARKS
TOPEKA         PTCLDY    62  59  90 CALM      29.91S
MANHATTAN      PTCLDY    63  58  83 CALM      29.89S
EMPORIA        CLEAR     60  58  92 S8        29.92S
CHANUTE        PTCLDY    61  59  93 SE8       29.92F
WICHITA        MOCLDY    63  57  81 S8        29.90S
OMAHA          CLOUDY    64  58  80 SE6       29.90R
LINCOLN        MOCLDY    67  58  72 S15       29.85F
FALLS CITY     CLOUDY    61  58  90 S5        29.90R
LAMONI         PTCLDY    60  59  96 E7        29.95S FOG
DES MOINES     CLOUDY    58  55  90 E9        29.96F

$$




USA.gov is the U.S. government's official web portal to all federal, state and local government web resources and services.